Погода в Овчинниково

Россия / Новосибирская область     55°11′54″N   81°41′00″E
темп.,
°C
ветер,
м/с
пор.,
м/с
влажн.,
%
обл.,
%
осадки,
мм/ч
давл.,
гПа
погр.,
м
17 июня, чт
чт1701:00+16з35937 0.6 101090
04:00+13зюз349246 0.1 100962
07:00+15зюз369247 0.1 1009159
10:00+20з3578100 0.0 1009451
13:00+23з56705 2.1 1008984
16:00+24з686073 0.4 10081637
19:00+22з58685 0.4 1008539
22:00+17з33800 0.0 100829
18 июня, пт
пт1801:00+15зюз2290100 0.0 100820
04:00+14ююз339127 0.0 100634
07:00+17ююз368914 0.0 1006151
10:00+21ююз4577100 0.1 1005348
13:00+24ююз4771100 0.1 1004562
16:00+27юз476062 0.0 10031474
19:00+26ю376966 0.0 1001316
22:00+21ююв47832 0.0 999113
19 июня, сб
сб1901:00+19зсз488291 0.0 999223
04:00+16юв339297 0.0 99835
07:00+17ююз258865 0.0 998179
10:00+20ююз237798 0.0 997467
13:00+24юз456795 0.1 9961261
16:00+18з678599 0.9 998726
19:00+12зсз5685100 0.9 1000583
22:00+10з4586100 0.0 1001557
20 июня, вс
вс2001:00+9з4687100 0.0 1002556
04:00+8зюз4685100 0.0 1002714
07:00+7юз5885100 0.1 1003886
10:00+7ююз6984100 0.1 10041082
13:00+9ююз8128599 0.5 10051259
16:00+11ююз8117597 0.7 10051367
19:00+11юз6107071 1.0 10051255
22:00+8ююз7138777 0.3 1004773
21 июня, пн
пн2101:00+8ю51096100 1.9 1004626
04:00+9ю71395100 2.6 1003610
07:00+9ююв51293100 2.9 1003370
10:00+14ююв71176100 0.0 1002690
13:00+18ююв71053100 0.3 10002155
16:00+19юв61056100 0.1 9982311
19:00+13вюв101894100 3.3 9981047
22:00+12вюв61097100 6.6 999377